Tiree, United Kingdom

9:51 PM GMT on November 17, 2017 (GMT +0000)
Tiree

Weather History for EGPU - December, 2011

Change the Weather History Date:

Friday, December 23, 2011

  Actual Average Record
Temperature  
Mean Temperature 42 °F -  
Max Temperature 44 °F 45 °F 51 °F (2002)
Min Temperature 41 °F 37 °F 23 °F (2010)
Degree Days  
Heating Degree Days 22    
Moisture  
Dew Point 36 °F    
Average Humidity 75    
Maximum Humidity 87    
Minimum Humidity 61    
Precipitation  
Precipitation 0.04 in 0.17 in - ()
Sea Level Pressure  
Sea Level Pressure 29.86 in    
Wind  
Wind Speed 19 mph ()    
Max Wind Speed 31 mph    
Max Gust Speed 38 mph    
Visibility 6.6 miles    
Events Rain    
Averages and records for this station are not official NWS values.
T = Trace of Precipitation, MM = Missing Value Source: Averaged Metar Reports

Daily Weather History Graph

Daily Weather History Graph

Search for Another Location

Airport or City:

Trip Planner

Search our weather history database for the weather conditions in past years. The results will help you decide how hot, cold, wet, or windy it might be!

Date:

Astronomy

Dec. 23, 2011 Rise Set
Actual Time 9:01 AM GMT 3:51 PM GMT
Civil Twilight 8:12 AM GMT 4:40 PM GMT
Nautical Twilight 7:22 AM GMT 5:30 PM GMT
Astronomical Twilight 6:36 AM GMT 6:16 PM GMT
Moon 7:38 AM GMT (12/23) 2:43 PM GMT (12/23)
Length of Visible Light 8h 27m
Length of Day
6h 50m
Waning Crescent, 2% of the Moon is Illuminated
Dec 23
Waning Crescent
Dec 24
New
Jan 1
First Quarter
Jan 9
Full
Jan 16
Last Quarter

Hourly Weather History & Observations

Time (GMT) Temp. Windchill Dew Point Humidity Pressure Visibility Wind Dir Wind Speed Gust Speed Precip Events Conditions
12:20 AM 48.2 °F - 41.0 °F 76% 29.74 in 6.2 mi West 23.0 mph - N/A   Mostly Cloudy
12:50 AM 48.2 °F - 42.8 °F 82% 29.74 in 5.6 mi West 18.4 mph - N/A   Unknown
1:20 AM 48.2 °F - 41.0 °F 76% 29.74 in 6.2 mi West 19.6 mph - N/A   Partly Cloudy
1:50 AM 46.4 °F 38.1 °F 39.2 °F 76% 29.74 in 6.2 mi West 24.2 mph - N/A   Unknown
2:20 AM 46.4 °F 38.5 °F 39.2 °F 76% 29.74 in 6.2 mi West 21.9 mph - N/A   Unknown
2:50 AM 46 °F - 39 °F 68% 29.78 in 7 mi West 23.0 mph - -   Mostly Cloudy
2:50 AM 46.4 °F 38.3 °F 39.2 °F 76% 29.77 in 6.2 mi West 23.0 mph - N/A   Unknown
3:20 AM 46.4 °F 40.1 °F 39.2 °F 76% 29.77 in 6.2 mi WNW 15.0 mph - N/A   Unknown
3:50 AM 42.8 °F 35.8 °F 37.4 °F 81% 29.77 in 6.2 mi West 13.8 mph - N/A   Unknown
4:20 AM 44.6 °F 36.9 °F 35.6 °F 71% 29.77 in 6.2 mi West 18.4 mph - N/A   Unknown
4:50 AM 44.6 °F 36.6 °F 35.6 °F 71% 29.77 in 6.2 mi West 19.6 mph - N/A   Unknown
5:20 AM 44.6 °F 37.2 °F 35.6 °F 71% 29.77 in 6.2 mi West 17.3 mph - N/A   Partly Cloudy
5:50 AM 44 °F - 35 °F 61% 29.77 in 9 mi West 17.3 mph - - Rain Rain
5:50 AM 44.6 °F 37.2 °F 35.6 °F 71% 29.74 in 6.2 mi West 17.3 mph - N/A   Partly Cloudy
6:20 AM 44.6 °F 36.9 °F 35.6 °F 71% 29.77 in 6.2 mi West 18.4 mph - N/A   Partly Cloudy
6:50 AM 42.8 °F 34.3 °F 39.2 °F 87% 29.77 in 6.2 mi WNW 19.6 mph - N/A   Unknown
7:20 AM 42.8 °F 34.5 °F 35.6 °F 76% 29.77 in 6.2 mi WNW 18.4 mph - N/A   Unknown
7:50 AM 41.0 °F 30.2 °F 35.6 °F 81% 29.77 in 6.2 mi WNW 27.6 mph - N/A   Unknown
8:20 AM 41.0 °F 34.7 °F 37.4 °F 87% 29.77 in 6.2 mi West 10.4 mph - N/A   Unknown
8:50 AM 41 °F - 37 °F 82% 29.81 in 6 mi WNW 19.6 mph - - Rain Rain Showers
8:50 AM 41.0 °F 31.9 °F 37.4 °F 87% 29.80 in 4.3 mi WNW 19.6 mph - N/A   Scattered Clouds
9:20 AM 42.8 °F 32.1 °F 37.4 °F 81% 29.80 in 6.2 mi WNW 31.1 mph - N/A Rain Light Rain Showers
9:50 AM 42.8 °F 36.6 °F 39.2 °F 87% 29.80 in 6.2 mi West 11.5 mph - N/A   Mostly Cloudy
10:20 AM 42.8 °F 35.4 °F 37.4 °F 81% 29.80 in 6.2 mi West 15.0 mph - N/A   Scattered Clouds
10:50 AM 41.0 °F 29.8 °F 35.6 °F 81% 29.83 in 5.6 mi WNW 29.9 mph - N/A Rain Rain Showers
11:20 AM 42.8 °F 35.8 °F 37.4 °F 81% 29.83 in 6.2 mi West 13.8 mph - N/A   Scattered Clouds
11:50 AM 43 °F - 34 °F 61% 29.83 in 14 mi WNW 24.2 mph - - Rain Rain
11:50 AM 42.8 °F 33.3 °F 33.8 °F 70% 29.83 in 6.2 mi WNW 24.2 mph - N/A   Partly Cloudy
12:20 PM 42.8 °F 33.5 °F 33.8 °F 70% 29.83 in 6.2 mi WNW 23.0 mph - N/A   Scattered Clouds
12:50 PM 42.8 °F 33.3 °F 35.6 °F 76% 29.83 in 6.2 mi WNW 24.2 mph - N/A   Unknown
1:20 PM 42.8 °F 33.8 °F 35.6 °F 76% 29.83 in 6.2 mi WNW 21.9 mph - N/A   Partly Cloudy
1:50 PM 41.0 °F 31.6 °F 33.8 °F 76% 29.86 in 6.2 mi WNW 20.7 mph - N/A   Scattered Clouds
2:20 PM 41.0 °F 33.5 °F 37.4 °F 87% 29.86 in 6.2 mi WNW 13.8 mph - N/A   Scattered Clouds
2:50 PM 42 °F - 36 °F 70% 29.88 in 13 mi WNW 21.9 mph - - Rain Rain
2:50 PM 42.8 °F 33.8 °F 35.6 °F 76% 29.86 in 6.2 mi WNW 21.9 mph - N/A   Scattered Clouds
3:20 PM 42.8 °F 33.8 °F 35.6 °F 76% 29.86 in 6.2 mi WNW 21.9 mph - N/A   Unknown
3:50 PM 42.8 °F 33.1 °F 35.6 °F 76% 29.89 in 6.2 mi WNW 25.3 mph - N/A   Partly Cloudy
4:20 PM 42.8 °F 32.9 °F 35.6 °F 76% 29.92 in 6.2 mi NW 26.5 mph - N/A   Partly Cloudy
4:50 PM 41.0 °F 32.8 °F 37.4 °F 87% 29.92 in 6.2 mi NW 16.1 mph - N/A   Unknown
5:20 PM 42.8 °F 33.1 °F 35.6 °F 76% 29.95 in 6.2 mi NW 25.3 mph - N/A   Mostly Cloudy
5:50 PM 43 °F - 36 °F 69% 29.96 in 9 mi NNW 23.0 mph - - Rain Rain
5:50 PM 42.8 °F 33.5 °F 35.6 °F 76% 29.95 in 6.2 mi NNW 23.0 mph 34.5 mph N/A   Partly Cloudy
6:20 PM 42.8 °F 33.3 °F 35.6 °F 76% 29.98 in 6.2 mi WNW 24.2 mph - N/A   Partly Cloudy
6:50 PM 42.8 °F 33.8 °F 33.8 °F 70% 29.98 in 6.2 mi WNW 21.9 mph - N/A   Unknown
7:20 PM 42.8 °F 33.1 °F 35.6 °F 76% 30.01 in 6.2 mi NW 25.3 mph 38.0 mph N/A   Mostly Cloudy
7:50 PM 42.8 °F 33.8 °F 33.8 °F 70% 30.01 in 6.2 mi WNW 21.9 mph - N/A   Unknown
8:20 PM 42.8 °F 33.5 °F 33.8 °F 70% 30.01 in 6.2 mi WNW 23.0 mph - N/A   Partly Cloudy
8:50 PM 42 °F - 34 °F 65% 30.04 in 11 mi WNW 19.6 mph - -  
8:50 PM 42.8 °F 34.3 °F 33.8 °F 70% 30.01 in 6.2 mi WNW 19.6 mph - N/A   Unknown
9:20 PM 42.8 °F 34.5 °F 33.8 °F 70% 30.04 in 6.2 mi WNW 18.4 mph - N/A   Unknown
9:50 PM 42.8 °F 34.0 °F 33.8 °F 70% 30.04 in 6.2 mi WNW 20.7 mph - N/A   Unknown
10:20 PM 42.8 °F 34.8 °F 35.6 °F 76% 30.04 in 6.2 mi West 17.3 mph - N/A   Scattered Clouds
10:50 PM 42.8 °F 34.0 °F 33.8 °F 70% 30.06 in 6.2 mi West 20.7 mph - N/A   Partly Cloudy
11:20 PM 42.8 °F 34.8 °F 33.8 °F 70% 30.04 in 6.2 mi West 17.3 mph - N/A   Partly Cloudy
11:50 PM 42.8 °F 35.1 °F 37.4 °F 81% 30.04 in 6.2 mi West 16.1 mph - N/A   Unknown